H1 CPF 2 NER 2021 5 27 9 147 01 glonass138 H2 1805301 9138 43508 2021 5 27 0 0 0 2021 5 30 23 45 0 900 1 1 0 0 0 1 H9 10 0 59361 0.00000 0 -13023765.107 -9072826.864 -19958630.961 10 0 59361 900.00000 0 -13947986.545 -11240849.772 -18152244.116 10 0 59361 1800.00000 0 -14926362.287 -13113451.101 -15993083.086 10 0 59361 2700.00000 0 -15903212.790 -14658850.292 -13523184.221 10 0 59361 3600.00000 0 -16819537.614 -15857779.764 -10790601.099 10 0 59361 4500.00000 0 -17615589.648 -16704038.997 -7848465.515 10 0 59361 5400.00000 0 -18233496.540 -17204508.642 -4753951.113 10 0 59361 6300.00000 0 -18619818.695 -17378625.722 -1567160.039 10 0 59361 7200.00000 0 -18727935.903 -17257343.748 1650045.377 10 0 59361 8100.00000 0 -18520162.050 -16881623.123 4835243.000 10 0 59361 9000.00000 0 -17969498.859 -16300516.694 7926659.927 10 0 59361 9900.00000 0 -17060954.885 -15568932.129 10864366.600 10 0 59361 10800.00000 0 -15792374.320 -14745166.007 13591433.080 10 0 59361 11700.00000 0 -14174740.614 -13888313.772 16055025.458 10 0 59361 12600.00000 0 -12231941.921 -13055664.510 18207421.702 10 0 59361 13500.00000 0 -10000007.598 -12300189.813 20006928.051 10 0 59361 14400.00000 0 -7525846.813 -11668231.732 21418679.120 10 0 59361 15300.00000 0 -4865540.808 -11197486.303 22415307.071 10 0 59361 16200.00000 0 -2082258.555 -10915366.708 22977467.747 10 0 59361 17100.00000 0 756119.134 -10837814.269 23094214.208 10 0 59361 18000.00000 0 3579569.914 -10968606.940 22763210.788 10 0 59361 18900.00000 0 6318589.681 -11299194.420 21990783.527 10 0 59361 19800.00000 0 8906833.045 -11809067.208 20791805.643 10 0 59361 20700.00000 0 11283626.183 -12466644.875 19189419.572 10 0 59361 21600.00000 0 13396248.889 -13230647.185 17214599.949 10 0 59361 22500.00000 0 15201891.727 -14051891.506 14905564.830 10 0 59361 23400.00000 0 16669207.205 -14875441.879 12307045.358 10 0 59361 24300.00000 0 17779390.518 -15643020.078 9469426.916 10 0 59361 25200.00000 0 18526744.703 -16295577.498 6447777.437 10 0 59361 26100.00000 0 18918706.398 -16775919.425 3300781.212 10 0 59361 27000.00000 0 18975331.040 -17031270.508 89598.615 10 0 59361 27900.00000 0 18728259.173 -17015672.204 -3123325.991 10 0 59361 28800.00000 0 18219207.503 -16692109.690 -6275484.407 10 0 59361 29700.00000 0 17498048.740 -16034276.870 -9305528.330 10 0 59361 30600.00000 0 16620561.846 -15027903.269 -12154471.951 10 0 59361 31500.00000 0 15645948.443 -13671585.158 -14766848.872 10 0 59361 32400.00000 0 14634221.213 -11977084.294 -17091799.959 10 0 59361 33300.00000 0 13643575.468 -9969080.239 -19084070.114 10 0 59361 34200.00000 0 12727855.735 -7684385.594 -20704893.964 10 0 59361 35100.00000 0 11934224.947 -5170656.118 -21922752.937 10 0 59361 36000.00000 0 11301134.991 -2484649.098 -22713988.929 10 0 59361 36900.00000 0 10856684.358 309897.609 -23063262.771 10 0 59361 37800.00000 0 10617431.979 3144677.650 -22963848.932 10 0 59361 38700.00000 0 10587716.831 5949419.079 -22417761.150 10 0 59361 39600.00000 0 10759511.387 8654569.845 -21435707.023 10 0 59361 40500.00000 0 11112814.352 11193954.440 -20036872.912 10 0 59361 41400.00000 0 11616565.308 13507291.663 -18248543.738 10 0 59361 42300.00000 0 12230041.906 15542469.244 -16105565.463 10 0 59361 43200.00000 0 12904679.908 17257481.553 -13649661.021 10 0 59361 44100.00000 0 13586238.604 18621950.735 -10928613.255 10 0 59361 45000.00000 0 14217219.657 19618169.045 -7995331.118 10 0 59361 45900.00000 0 14739436.781 20241620.423 -4906817.547 10 0 59361 46800.00000 0 15096627.452 20500961.081 -1723059.343 10 0 59361 47700.00000 0 15236996.158 20417461.587 1494138.985 10 0 59361 48600.00000 0 15115581.730 20023935.472 4682354.571 10 0 59361 49500.00000 0 14696348.829 19363200.795 7779755.320 10 0 59361 50400.00000 0 13953915.413 18486140.478 10726295.259 10 0 59361 51300.00000 0 12874843.372 17449443.803 13464873.121 10 0 59361 52200.00000 0 11458437.881 16313124.472 15942432.153 10 0 59361 53100.00000 0 9717021.619 15137919.622 18110980.270 10 0 59361 54000.00000 0 7675671.759 13982678.781 19928511.669 10 0 59361 54900.00000 0 5371429.905 12901851.804 21359812.904 10 0 59361 55800.00000 0 2852016.876 11943180.444 22377138.680 10 0 59361 56700.00000 0 174104.515 11145689.499 22960745.130 10 0 59361 57600.00000 0 -2598785.189 10538060.928 23099270.928 10 0 59361 58500.00000 0 -5398668.034 10137458.444 22789959.171 10 0 59361 59400.00000 0 -8155675.180 9948851.450 22038715.812 10 0 59361 60300.00000 0 -10800715.146 9964866.558 20860003.155 10 0 59361 61200.00000 0 -13268111.101 10166173.170 19276569.790 10 0 59361 62100.00000 0 -15498105.184 10522387.430 17319021.232 10 0 59361 63000.00000 0 -17439126.657 10993457.268 15025238.381 10 0 59361 63900.00000 0 -19049729.879 11531471.004 12439653.905 10 0 59361 64800.00000 0 -20300121.579 12082814.040 9612399.391 10 0 59361 65700.00000 0 -21173213.508 12590583.137 6598338.823 10 0 59361 66600.00000 0 -21665156.131 12997156.518 3456006.590 10 0 59361 67500.00000 0 -21785330.691 13246810.915 246470.326 10 0 59361 68400.00000 0 -21555799.709 13288274.252 -2967859.223 10 0 59361 69300.00000 0 -21010238.877 13077104.878 -6124447.600 10 0 59361 70200.00000 0 -20192395.453 12577795.338 -9161860.848 10 0 59361 71100.00000 0 -19154138.474 11765510.084 -12020969.789 10 0 59361 72000.00000 0 -17953183.548 10627381.985 -14646109.811 10 0 59361 72900.00000 0 -16650588.975 9163311.244 -16986172.653 10 0 59361 73800.00000 0 -15308129.550 7386231.391 -18995608.165 10 0 59361 74700.00000 0 -13985659.598 5321829.881 -20635315.849 10 0 59361 75600.00000 0 -12738576.997 3007733.803 -21873408.587 10 0 59361 76500.00000 0 -11615495.396 492193.962 -22685833.593 10 0 59361 77400.00000 0 -10656222.795 -2167678.204 -23056838.659 10 0 59361 78300.00000 0 -9890131.339 -4908047.707 -22979274.960 10 0 59361 79200.00000 0 -9334986.380 -7660778.270 -22454730.969 10 0 59361 80100.00000 0 -8996283.350 -10356039.004 -21493495.326 10 0 59361 81000.00000 0 -8867119.284 -12924987.205 -20114349.911 10 0 59361 81900.00000 0 -8928603.309 -15302415.964 -18344197.479 10 0 59361 82800.00000 0 -9150787.617 -17429256.660 -16217531.552 10 0 59361 83700.00000 0 -9494078.519 -19254832.776 -13775759.177 10 0 59361 84600.00000 0 -9911066.979 -20738771.901 -11066389.958 10 0 59361 85500.00000 0 -10348700.461 -21852497.046 -8142107.518 10 0 59362 0.00000 0 -10750703.572 -22580236.271 -5059741.734 10 0 59362 900.00000 0 -11060144.454 -22919509.526 -1879161.629 10 0 59362 1800.00000 0 -11222038.711 -22881074.345 1337888.246 10 0 59362 2700.00000 0 -11185879.326 -22488333.003 4528986.377 10 0 59362 3600.00000 0 -10907986.956 -21776228.665 7632243.478 10 0 59362 4500.00000 0 -10353580.305 -20789677.035 10587499.066 10 0 59362 5400.00000 0 -9498479.694 -19581600.769 13337482.386 10 0 59362 6300.00000 0 -8330371.755 -18210649.518 15828915.532 10 0 59362 7200.00000 0 -6849581.895 -16738701.561 18013537.926 10 0 59362 8100.00000 0 -5069321.588 -15228251.602 19849033.071 10 0 59362 9000.00000 0 -3015399.356 -13739793.688 21299840.564 10 0 59362 9900.00000 0 -725406.531 -12329308.099 22337838.464 10 0 59362 10800.00000 0 1752589.579 -11045956.452 22942883.719 10 0 59362 11700.00000 0 4361792.296 -9930080.409 23103200.810 10 0 59362 12600.00000 0 7038790.972 -9011586.812 22815611.499 10 0 59362 13500.00000 0 9715959.099 -8308785.995 22085601.262 10 0 59362 14400.00000 0 12324037.343 -7827731.368 20927220.816 10 0 59362 15300.00000 0 14794795.715 -7562087.712 19362823.968 10 0 59362 16200.00000 0 17063665.656 -7493533.759 17422645.902 10 0 59362 17100.00000 0 19072233.560 -7592682.426 15144228.885 10 0 59362 18000.00000 0 20770492.437 -7820480.484 12571705.321 10 0 59362 18900.00000 0 22118758.059 -8130029.196 9754950.900 10 0 59362 19800.00000 0 23089169.427 -8468749.501 6748623.239 10 0 59362 20700.00000 0 23666710.330 -8780800.529 3611104.109 10 0 59362 21600.00000 0 23849708.697 -9009648.991 403365.449 10 0 59362 22500.00000 0 23649792.224 -9100680.258 -2812218.716 10 0 59362 23400.00000 0 23091301.705 -9003739.661 -5973090.817 10 0 59362 24300.00000 0 22210186.508 -8675495.196 -9017734.322 10 0 59362 25200.00000 0 21052428.728 -8081520.084 -11886879.586 10 0 59362 26100.00000 0 19672062.662 -7198005.463 -14524666.412 10 0 59362 27000.00000 0 18128873.536 -6013029.097 -16879739.747 10 0 59362 27900.00000 0 16485873.023 -4527324.875 -18906256.368 10 0 59362 28800.00000 0 14806658.550 -2754519.203 -20564782.288 10 0 59362 29700.00000 0 13152768.078 -720823.018 -21823063.106 10 0 59362 30600.00000 0 11581142.010 1535808.766 -22656652.244 10 0 59362 31500.00000 0 10141799.069 3967015.882 -23049384.940 10 0 59362 32400.00000 0 8875823.595 6515814.102 -22993689.154 10 0 59362 33300.00000 0 7813748.217 9118745.358 -22490727.751 10 0 59362 34200.00000 0 6974399.040 11708307.162 -21550369.669 10 0 59362 35100.00000 0 6364250.662 14215560.263 -20190991.143 10 0 59362 36000.00000 0 5977316.775 16572806.124 -18439111.214 10 0 59362 36900.00000 0 5795579.508 18716222.838 -16328869.049 10 0 59362 37800.00000 0 5789937.920 20588350.009 -13901353.541 10 0 59362 38700.00000 0 5921634.220 22140319.495 -11203798.477 10 0 59362 39600.00000 0 6144096.238 23333739.510 -8288659.277 10 0 59362 40500.00000 0 6405117.237 24142154.247 -5212589.535 10 0 59362 41400.00000 0 6649280.004 24552019.028 -2035337.493 10 0 59362 42300.00000 0 6820522.107 24563151.216 1181415.703 10 0 59362 43200.00000 0 6864733.336 24188639.260 4375253.195 10 0 59362 44100.00000 0 6732275.255 23454214.849 7484231.670 10 0 59362 45000.00000 0 6380316.267 22397115.551 10448079.096 10 0 59362 45900.00000 0 5774883.527 21064486.527 13209357.885 10 0 59362 46800.00000 0 4892545.106 19511388.902 15714571.322 10 0 59362 47700.00000 0 3721651.403 17798498.517 17915192.314 10 0 59362 48600.00000 0 2263083.292 15989591.353 19768595.292 10 0 59362 49500.00000 0 530474.984 14148920.335 21238874.141 10 0 59362 50400.00000 0 -1450098.580 12338592.514 22297531.160 10 0 59362 51300.00000 0 -3640957.942 10616055.184 22924024.586 10 0 59362 52200.00000 0 -5994145.581 9031794.768 23106164.786 10 0 59362 53100.00000 0 -8453188.964 7627343.478 22840351.805 10 0 59362 54000.00000 0 -10955228.672 6433675.856 22131649.785 10 0 59362 54900.00000 0 -13433424.954 5470061.327 20993696.506 10 0 59362 55800.00000 0 -15819544.266 4743420.129 19448449.133 10 0 59362 56700.00000 0 -18046619.688 4248209.205 17525770.174 10 0 59362 57600.00000 0 -20051575.660 3966842.746 15262860.480 10 0 59362 58500.00000 0 -21777708.277 3870629.870 12703549.052 10 0 59362 59400.00000 0 -23176917.982 3921190.189 9897452.290 10 0 59362 60300.00000 0 -24211601.250 4072287.846 6899017.909 10 0 59362 61200.00000 0 -24856121.548 4272006.755 3766471.496 10 0 59362 62100.00000 0 -25097797.271 4465174.949 560685.798 10 0 59362 63000.00000 0 -24937364.386 4595935.064 -2656005.243 10 0 59362 63900.00000 0 -24388893.558 4610351.351 -5821024.112 10 0 59362 64800.00000 0 -23479164.646 4458941.707 -8872774.624 10 0 59362 65700.00000 0 -22246524.556 4099026.091 -11751849.321 10 0 59362 66600.00000 0 -20739276.387 3496790.378 -14402194.761 10 0 59362 67500.00000 0 -19013667.921 2628976.674 -16772211.060 10 0 59362 68400.00000 0 -17131564.403 1484127.019 -18815763.441 10 0 59362 69300.00000 0 -15157904.047 63326.498 -20493085.436 10 0 59362 70200.00000 0 -13158043.679 -1619586.930 -21771555.823 10 0 59362 71100.00000 0 -11195106.316 -3538355.897 -22626334.113 10 0 59362 72000.00000 0 -9327442.216 -5655167.275 -23040842.310 10 0 59362 72900.00000 0 -7606309.720 -7922010.519 -23007083.941 10 0 59362 73800.00000 0 -6073872.579 -10282474.449 -22525794.569 10 0 59362 74700.00000 0 -4761596.966 -12673907.581 -21606421.320 10 0 59362 75600.00000 0 -3689114.156 -15029852.119 -20266932.333 10 0 59362 76500.00000 0 -2863595.148 -17282650.162 -18533460.235 10 0 59362 77400.00000 0 -2279661.886 -19366113.471 -16439786.963 10 0 59362 78300.00000 0 -1919837.039 -21218145.598 -14026680.297 10 0 59362 79200.00000 0 -1755511.675 -22783207.184 -11341095.245 10 0 59362 80100.00000 0 -1748388.430 -24014521.783 -8435256.151 10 0 59362 81000.00000 0 -1852337.783 -24875930.528 -5365637.656 10 0 59362 81900.00000 0 -2015587.800 -25343318.777 -2191864.555 10 0 59362 82800.00000 0 -2183153.811 -25405555.724 1024447.676 10 0 59362 83700.00000 0 -2299404.558 -25064908.581 4220888.945 10 0 59362 84600.00000 0 -2310655.801 -24336914.872 7335463.821 10 0 59362 85500.00000 0 -2167681.520 -23249719.070 10307790.423 10 0 59363 0.00000 0 -1828036.533 -21842902.192 13080265.795 10 0 59363 900.00000 0 -1258092.049 -20165853.675 15599175.839 10 0 59363 1800.00000 0 -434699.589 -18275754.467 17815728.006 10 0 59363 2700.00000 0 653589.058 -16235255.011 19686988.519 10 0 59363 3600.00000 0 2005795.274 -14109945.124 21176706.177 10 0 59363 4500.00000 0 3608312.995 -11965720.582 22256007.866 10 0 59363 5400.00000 0 5435242.776 -9866155.246 22903953.204 10 0 59363 6300.00000 0 7449248.073 -7869987.077 23107938.276 10 0 59363 7200.00000 0 9602899.416 -6028821.590 22863941.016 10 0 59363 8100.00000 0 11840452.244 -4385147.195 22176603.634 10 0 59363 9000.00000 0 14099986.145 -2970744.001 21059150.182 10 0 59363 9900.00000 0 16315818.105 -1805551.659 19533140.228 10 0 59363 10800.00000 0 18421090.843 -897042.785 17628062.484 10 0 59363 11700.00000 0 20350429.636 -240127.810 15380775.075 10 0 59363 12600.00000 0 22042557.568 182404.923 12834802.092 10 0 59363 13500.00000 0 23442760.436 398932.326 10039498.892 10 0 59363 14400.00000 0 24505098.136 447563.227 7049101.272 10 0 59363 15300.00000 0 25194269.435 374288.902 3921676.346 10 0 59363 16200.00000 0 25487051.129 230795.723 717995.130 10 0 59363 17100.00000 0 25373250.215 72032.813 -2499651.246 10 0 59363 18000.00000 0 24856127.979 -46361.750 -5668668.171 10 0 59363 18900.00000 0 23952277.255 -70666.167 -8727382.668 10 0 59363 19800.00000 0 22690957.255 48399.960 -11616252.236 10 0 59363 20700.00000 0 21112913.479 353338.980 -14279032.770 10 0 59363 21600.00000 0 19268732.153 877827.464 -16663881.893 10 0 59363 22500.00000 0 17216798.424 1645045.557 -18724375.336 10 0 59363 23400.00000 0 15020944.379 2666455.433 -20420415.920 10 0 59363 24300.00000 0 12747885.947 3941081.738 -21719017.074 10 0 59363 25200.00000 0 10464556.458 5455325.482 -22594945.570 10 0 59363 26100.00000 0 8235448.820 7183320.127 -23031211.031 10 0 59363 27000.00000 0 6120077.499 9087815.636 -23019393.059 10 0 59363 27900.00000 0 4170666.111 11121553.974 -22559800.034 10 0 59363 28800.00000 0 2430156.723 13229078.749 -21661456.978 10 0 59363 29700.00000 0 930623.037 15348903.499 -20341923.212 10 0 59363 30600.00000 0 -307847.524 17415948.118 -18626943.774 10 0 59363 31500.00000 0 -1277757.591 19364141.533 -16549941.761 10 0 59363 32400.00000 0 -1984266.035 21129081.958 -14151361.817 10 0 59363 33300.00000 0 -2444715.712 22650643.562 -11477877.765 10 0 59363 34200.00000 0 -2687644.471 23875420.630 -8581480.141 10 0 59363 35100.00000 0 -2751322.906 24758907.216 -5518461.624 10 0 59363 36000.00000 0 -2681882.095 25267321.376 -2348320.355 10 0 59363 36900.00000 0 -2531111.668 25378998.044 867397.179 10 0 59363 37800.00000 0 -2354022.295 25085292.771 4066290.983 10 0 59363 38700.00000 0 -2206276.345 24390959.100 7186316.764 10 0 59363 39600.00000 0 -2141595.755 23313984.394 10166985.898 10 0 59363 40500.00000 0 -2209256.835 21884891.595 12950533.041 10 0 59363 41400.00000 0 -2451777.847 20145536.513 15483029.094 10 0 59363 42300.00000 0 -2902896.809 18147451.203 17715418.426 10 0 59363 43200.00000 0 -3585924.726 15949802.527 19604461.019 10 0 59363 44100.00000 0 -4512543.604 13617050.702 21113562.189 10 0 59363 45000.00000 0 -5682100.056 11216404.785 22213474.665 10 0 59363 45900.00000 0 -7081424.750 8815180.071 22882860.328 10 0 59363 46800.00000 0 -8685186.214 6478166.169 23108701.453 10 0 59363 47700.00000 0 -10456765.450 4265113.984 22886553.910 10 0 59363 48600.00000 0 -12349616.336 2228444.772 22220637.546 10 0 59363 49500.00000 0 -14309056.785 411275.278 21123761.758 10 0 59363 50400.00000 0 -16274417.546 -1154159.832 19617087.076 10 0 59363 51300.00000 0 -18181460.643 -2447623.401 17729726.457 10 0 59363 52200.00000 0 -19964967.888 -3461483.166 15498192.855 10 0 59363 53100.00000 0 -21561392.224 -4200786.007 12965702.574 10 0 59363 54000.00000 0 -22911461.654 -4682796.229 10181346.695 10 0 59363 54900.00000 0 -23962626.752 -4936017.331 7199145.609 10 0 59363 55800.00000 0 -24671248.745 -4998738.490 4077004.314 10 0 59363 56700.00000 0 -25004435.527 -4917167.240 875588.387 10 0 59363 57600.00000 0 -24941447.394 -4743227.527 -2342857.534 10 0 59363 58500.00000 0 -24474612.113 -4532116.815 -5515725.321 10 0 59363 59400.00000 0 -23609709.628 -4339726.483 -8581268.622 10 0 59363 60300.00000 0 -22365809.071 -4220035.824 -11479813.083 10 0 59363 61200.00000 0 -20774564.065 -4222591.277 -14154926.858 10 0 59363 62100.00000 0 -18878995.394 -4390179.012 -16554527.619 10 0 59363 63000.00000 0 -16731811.828 -4756790.760 -18631903.703 10 0 59363 63900.00000 0 -14393339.647 -5345970.243 -20346628.766 10 0 59363 64800.00000 0 -11929147.781 -6169611.247 -21665351.818 10 0 59363 65700.00000 0 -9407468.209 -7227259.088 -22562447.140 10 0 59363 66600.00000 0 -6896519.786 -8505945.736 -23020511.537 10 0 59363 67500.00000 0 -4461847.325 -9980566.138 -23030699.588 10 0 59363 68400.00000 0 -2163786.828 -11614780.446 -22592890.801 10 0 59363 69300.00000 0 -55162.221 -13362404.488 -21715685.891 10 0 59363 70200.00000 0 1820691.133 -15169230.360 -20416232.748 10 0 59363 71100.00000 0 3431494.853 -16975200.888 -18719885.894 10 0 59363 72000.00000 0 4757123.754 -18716846.821 -16659706.442 10 0 59363 72900.00000 0 5790185.807 -20329884.582 -14275812.624 10 0 59363 73800.00000 0 6536063.494 -21751865.758 -11614593.749 10 0 59363 74700.00000 0 7012416.738 -22924767.201 -8727803.237 10 0 59363 75600.00000 0 7248170.336 -23797413.267 -5671548.599 10 0 59363 76500.00000 0 7282030.317 -24327628.740 -2505198.269 10 0 59363 77400.00000 0 7160593.368 -24484032.351 709773.096 10 0 59363 78300.00000 0 6936130.434 -24247395.986 3910978.191 10 0 59363 79200.00000 0 6664139.093 -23611512.949 7036326.166 10 0 59363 80100.00000 0 6400768.730 -22583539.268 10025223.652 10 0 59363 81000.00000 0 6200227.658 -21183794.104 12819744.526 10 0 59363 81900.00000 0 6112281.723 -19445027.852 15365746.126 10 0 59363 82800.00000 0 6179949.835 -17411188.625 17613910.671 10 0 59363 83700.00000 0 6437493.364 -15135738.493 19520692.525 10 0 59363 84600.00000 0 6908783.910 -12679589.199 21049153.805 10 0 59363 85500.00000 0 7606118.016 -10108742.715 22169673.026 10 0 59364 0.00000 0 8529528.787 -7491733.762 22860513.966 10 0 59364 900.00000 0 9666624.202 -4896979.345 23108244.473 10 0 59364 1800.00000 0 10992958.633 -2390144.071 22907997.491 10 0 59364 2700.00000 0 12472924.984 -31629.629 22263569.460 10 0 59364 3600.00000 0 14061129.846 2125709.440 21187353.961 10 0 59364 4500.00000 0 15704196.807 4038529.122 19700111.207 10 0 59364 5400.00000 0 17342923.642 5674558.236 17830577.048 10 0 59364 6300.00000 0 18914704.713 7013695.234 15614917.830 10 0 59364 7200.00000 0 20356118.254 8048594.172 13096040.520 10 0 59364 8100.00000 0 21605570.868 8784715.724 10322770.252 10 0 59364 9000.00000 0 22605888.622 9239841.250 7348910.165 10 0 59364 9900.00000 0 23306745.638 9443070.417 4232201.122 10 0 59364 10800.00000 0 23666827.450 9433344.761 1033201.066 10 0 59364 11700.00000 0 23655637.047 9257559.707 -2185894.206 10 0 59364 12600.00000 0 23254866.222 8968345.276 -5362465.486 10 0 59364 13500.00000 0 22459273.090 8621610.014 -8434695.511 10 0 59364 14400.00000 0 21277027.397 8273953.017 -11342780.481 10 0 59364 15300.00000 0 19729507.865 7980054.719 -14030103.065 10 0 59364 16200.00000 0 17850559.119 7790158.118 -16444343.074 10 0 59364 17100.00000 0 15685238.679 7747748.317 -18538503.318 10 0 59364 18000.00000 0 13288106.278 7887529.680 -20271829.950 10 0 59364 18900.00000 0 10721127.031 8233787.205 -21610609.007 10 0 59364 19800.00000 0 8051276.159 8799202.129 -22528823.523 10 0 59364 20700.00000 0 5347945.602 9584172.432 -23008658.504 10 0 59364 21600.00000 0 2680260.707 10576667.307 -23040844.269 10 0 59364 22500.00000 0 114418.835 11752622.019 -22624831.904 10 0 59364 23400.00000 0 -2288839.481 13076856.644 -21768797.902 10 0 59364 24300.00000 0 -4476522.106 14504480.080 -20489478.389 10 0 59364 25200.00000 0 -6405345.041 15982720.285 -18811836.596 10 0 59364 26100.00000 0 -8043279.807 17453103.697 -16768570.427 10 0 59364 27000.00000 0 -9370625.460 18853892.195 -14399470.049 10 0 59364 27900.00000 0 -10380562.215 20122675.093 -11750638.235 10 0 59364 28800.00000 0 -11079165.396 21199007.158 -8873588.930 10 0 59364 29700.00000 0 -11484881.128 22026981.749 -5824241.861 10 0 59364 30600.00000 0 -11627487.757 22557630.945 -2661832.937 10 0 59364 31500.00000 0 -11546588.441 22751051.829 552237.958 10 0 59364 32400.00000 0 -11289700.000 22578169.743 3755599.228 10 0 59364 33300.00000 0 -10910019.861 22022064.563 6886116.496 10 0 59364 34200.00000 0 -10463966.197 21078804.559 9883094.621 10 0 59364 35100.00000 0 -10008595.627 19757752.998 12688449.599 10 0 59364 36000.00000 0 -9599007.665 18081334.699 15247827.939 10 0 59364 36900.00000 0 -9285845.260 16084272.257 17511652.267 10 0 59364 37800.00000 0 -9112996.542 13812323.563 19436073.651 10 0 59364 38700.00000 0 -9115594.160 11320572.709 20983813.073 10 0 59364 39600.00000 0 -9318396.025 8671344.723 22124876.599 10 0 59364 40500.00000 0 -9734615.312 5931829.800 22837131.341 10 0 59364 41400.00000 0 -10365248.932 3171514.427 23106731.756 10 0 59364 42300.00000 0 -11198932.979 459524.716 22928388.502 10 0 59364 43200.00000 0 -12212331.949 -2138009.350 22305474.822 10 0 59364 44100.00000 0 -13371046.498 -4560460.828 21249968.168 10 0 59364 45000.00000 0 -14631002.929 -6754981.066 19782227.633 10 0 59364 45900.00000 0 -15940267.632 -8678449.884 17930610.616 10 0 59364 46800.00000 0 -17241211.784 -10299020.433 15730935.012 10 0 59364 47700.00000 0 -18472936.698 -11597194.871 13225796.139 10 0 59364 48600.00000 0 -19573858.876 -12566386.317 10463750.442 10 0 59364 49500.00000 0 -20484346.619 -13212943.800 7498380.734 10 0 59364 50400.00000 0 -21149297.235 -13555639.131 4387260.383 10 0 59364 51300.00000 0 -21520545.838 -13624637.430 1190836.163 10 0 59364 52200.00000 0 -21559003.299 -13459994.804 -2028748.631 10 0 59364 53100.00000 0 -21236431.901 -13109746.866 -5208867.412 10 0 59364 54000.00000 0 -20536782.381 -12627669.401 -8287635.680 10 0 59364 54900.00000 0 -19457034.335 -12070806.609 -11205123.777 10 0 59364 55800.00000 0 -18007503.148 -11496872.430 -13904532.298 10 0 59364 56700.00000 0 -16211599.162 -10961635.983 -16333306.335 10 0 59364 57600.00000 0 -14105048.127 -10516402.824 -18444165.935 10 0 59364 58500.00000 0 -11734604.950 -10205699.609 -20196032.020 10 0 59364 59400.00000 0 -9156314.143 -10065260.899 -21554829.324 10 0 59364 60300.00000 0 -6433389.481 -10120403.880 -22494150.639 10 0 59364 61200.00000 0 -3633801.445 -10384860.039 -22995769.468 10 0 59364 62100.00000 0 -827673.028 -10860113.316 -23049991.460 10 0 59364 63000.00000 0 1915407.701 -11535272.693 -22655838.226 10 0 59364 63900.00000 0 4529046.447 -12387484.408 -21821060.410 10 0 59364 64800.00000 0 6952562.809 -13382866.252 -20561980.265 10 0 59364 65700.00000 0 9133267.415 -14477924.263 -18903167.223 10 0 59364 66600.00000 0 11028402.167 -15621391.895 -16876953.149 10 0 59364 67500.00000 0 12606664.013 -16756413.880 -14522797.061 10 0 59364 68400.00000 0 13849250.186 -17822982.603 -11886511.885 10 0 59364 69300.00000 0 14750382.907 -18760524.117 -9019368.646 10 0 59364 70200.00000 0 15317293.475 -19510524.730 -5977095.739 10 0 59364 71100.00000 0 15569668.331 -20019087.429 -2818792.999 10 0 59364 72000.00000 0 15538582.151 -20239310.393 394217.959 10 0 59364 72900.00000 0 15264964.544 -20133387.487 3599584.558 10 0 59364 73800.00000 0 14797666.335 -19674342.344 6735131.955 10 0 59364 74700.00000 0 14191207.984 -18847323.197 9740065.956 10 0 59364 75600.00000 0 13503305.807 -17650404.058 12556146.970 10 0 59364 76500.00000 0 12792280.615 -16094858.562 15128812.521 10 0 59364 77400.00000 0 12114457.985 -14204894.821 17408227.006 10 0 59364 78300.00000 0 11521669.377 -12016861.963 19350239.081 10 0 59364 79200.00000 0 11058958.773 -9577960.821 20917229.010 10 0 59364 80100.00000 0 10762590.726 -6944511.668 22078830.395 10 0 59364 81000.00000 0 10658442.965 -4179849.931 22812513.268 10 0 59364 81900.00000 0 10760850.684 -1351935.928 23104017.947 10 0 59364 82800.00000 0 11071950.885 1469223.552 22947631.757 10 0 59364 83700.00000 0 11581554.470 4214236.470 22346303.451 10 0 59364 84600.00000 0 12267552.008 6816960.738 21311592.891 10 0 59364 85500.00000 0 13096836.984 9217005.388 19863456.445 99